Location: Unspecified
(0.0000°N, 0.0000°E)
Time: 09:32:31
(UTC+00:00)

RS-15 - Visible Passes

Search period start: 26 September 2020 00:00
Search period end: 06 October 2020 00:00
Orbit: 1895 x 2150 km, 64.8° (Epoch: 25 September)

Date Brightness Start Highest point End Pass type
(mag) Time Alt. Az. Time Alt. Az. Time Alt. Az.
26 Sep 10.0 03:11:42 10° SSE 03:18:11 17° ESE 03:24:32 10° ENE visible
26 Sep 7.9 05:19:17 10° SSW 05:30:18 72° WNW 05:41:08 10° NNE visible
26 Sep 10.6 19:20:34 10° W 19:24:19 12° WSW 19:28:06 10° SW visible
27 Sep 8.0 04:43:14 10° SSW 04:54:22 83° ESE 05:05:16 10° NNE visible
27 Sep 10.4 18:40:11 10° WNW 18:48:05 20° WSW 18:56:07 10° SSW visible
28 Sep 8.4 04:07:32 10° S 04:18:26 60° ESE 04:29:02 10° NNE visible
28 Sep 10.2 18:02:03 10° NW 18:11:57 30° WSW 18:22:04 10° SSW visible
29 Sep 8.9 03:32:13 10° S 03:42:27 42° ESE 03:52:24 10° NE visible
30 Sep 9.4 02:57:23 10° SSE 03:06:26 28° ESE 03:15:11 10° ENE visible
30 Sep 8.1 05:07:57 10° SW 05:18:20 48° WNW 05:28:37 10° N visible
01 Oct 9.8 02:23:24 10° SSE 02:30:19 18° ESE 02:37:04 10° ENE visible
01 Oct 7.8 04:31:26 10° SSW 04:42:24 68° WNW 04:53:10 10° NNE visible
01 Oct 10.8 18:34:08 10° WSW 18:36:29 11° WSW 18:38:51 10° SW visible
02 Oct 10.1 01:52:26 10° SE 01:54:06 10° ESE 01:55:46 10° ESE visible
02 Oct 7.9 03:55:20 10° SSW 04:06:28 87° ESE 04:17:22 10° NNE visible
03 Oct 8.2 03:19:35 10° S 03:30:32 63° ESE 03:41:12 10° NNE visible
04 Oct 8.7 02:44:12 10° S 02:54:34 44° ESE 03:04:37 10° NE visible
04 Oct 8.5 04:57:15 10° SW 05:06:25 31° WNW 05:15:32 10° N visible
05 Oct 9.2 02:09:18 10° S 02:18:33 30° ESE 02:27:32 10° NE visible
05 Oct 8.1 04:20:10 10° SW 04:30:26 45° WNW 04:40:37 10° N visible
